Home   Weather   Esperance   Past weeks
Flag for Australia

Past Weather in Esperance, Western Australia, Australia — Yesterday and Last 2 Weeks

Now
59 °F

Cool.


Feels Like: 59 °F
Forecast: 60 / 50 °F
Wind: 6 mph from West

Location: Esperance

Current Time: May 27, 2019 at 11:57:08 am

Latest Report: May 27, 2019 at 11:00 am


Visibility: N/A

Pressure: 30.39 "Hg

Humidity: 75%

Dew Point: 51 °F

Location of EsperanceLocation

Past Weather in Esperance — Graph

°F

Esperance Temperature Yesterday

Maximum temperature yesterday: 62 °F (at 2:00 pm)
Minimum temperature yesterday: 55 °F (at 3:00 am)
Average temperature yesterday: 57 °F

High & Low Weather Summary for the Past Weeks

 TemperatureHumidityPressure
High81 °F (May 15, 2:00 pm)99% (May 14, 2:00 am)30.40 "Hg (May 14, 2:00 am)
Low45 °F (May 20, 12:00 am)15% (May 15, 2:00 pm)29.93 "Hg (May 20, 6:00 am)
Average57 °F72%30.17 "Hg
* Reported May 12 9:00 am — May 27 9:00 am, Esperance. Weather by CustomWeather, © 2019

Note: Actual official high and low records may vary slightly from our data, if they occured in-between our weather recording intervals... More about our weather records

Advertising

Esperance Weather History for the Previous 24 Hours

Scroll right to see more
 ConditionsComfort  
Time TempWeatherWind HumidityBarometerVisibility
9:00 am
Mon, May 27
55 °FOvercast.7 mph88%30.40 "HgN/A
8:00 am53 °FCool.7 mph92%30.39 "HgN/A
6:00 am52 °FOvercast.3 mph97%30.37 "HgN/A
5:00 am50 °FCool.6 mph94%30.35 "HgN/A
3:00 am51 °FPassing clouds.6 mph96%30.36 "HgN/A
2:00 am51 °FCool.5 mph95%30.36 "HgN/A
12:00 am54 °FOvercast.7 mph81%30.37 "HgN/A
11:00 pm
Sun, May 26
55 °FCool.5 mph83%30.36 "HgN/A
9:00 pm55 °FPassing clouds.5 mph76%30.37 "HgN/A
8:00 pm55 °FCool.5 mph72%30.36 "HgN/A
6:00 pm58 °FPassing clouds.7 mph60%30.34 "HgN/A
5:00 pm58 °FCool.6 mph63%30.33 "HgN/A
3:00 pm61 °FScattered clouds.10 mph63%30.31 "HgN/A
2:00 pm62 °FRefreshingly cool.8 mph56%30.30 "HgN/A
12:00 pm61 °FOvercast.8 mph54%30.31 "HgN/A
11:00 am60 °FCool.6 mph62%30.33 "HgN/A
Weather by CustomWeather, © 2019

See weather overview